Terug naar catalogus

COSMOS 1023

ActiefMilitairLEO
NORAD 10961·PAYLOAD·🇷🇺 Russia

Gelanceerd Jun 21, 1978 vanaf Plesetsk Cosmodrome

Loading…

Volgende Passages (komende 24 uur)

TLE

VersSource: Space-Track

Epoch: Sep 14, 2026, 01:13 UTC

1 10961U 78063A   26257.05078305  .00000089  00000-0  38253-4 0  9993
2 10961  74.0741 285.1427 0015149  57.2056 303.0555 14.37626136525705

Volg COSMOS 1023 in realtime met AllMySat

Download on the App Store